HB9TQJ-6 Weather Reports


time (UTC)temp
C
wind
direction
speed
KPH
gust
KPH
rain 1hr
cm
rain 24hr
cm
rain mn
cm
humidity
%
barometer
mb
20260506140257 13 90 1.6 3.2 0.13 0.64 0.64 79 1008.1
20260506135255 13 90 1.6 3.2 0.15 0.64 0.64 80 1008.2
20260506134254 13 90 1.6 3.2 0.15 0.64 0.64 80 1008.2
20260506133251 13 90 1.6 4.8 0.18 0.64 0.64 81 1008.1
20260506132248 13 122 1.6 4.8 0.23 0.64 0.64 81 1008.1
20260506131248 13 90 1.6 3.2 0.20 0.58 0.56 81 1008.0
20260506130244 14 90 1.6 3.2 0.15 0.53 0.51 80 1007.8
20260506125244 14 90 1.6 3.2 0.18 0.51 0.48 81 1007.7
20260506124251 14 57 1.6 3.2 0.20 0.48 0.46 81 1007.7
20260506123328 14 57 1.6 3.2 0.23 0.46 0.43 80 1007.6
20260506122256 15 90 1.6 3.2 0.20 0.41 0.41 80 1007.5
20260506121235 15 49 1.6 3.2 0.20 0.38 0.36 81 1007.3
20260506120233 15 90 1.6 3.2 0.20 0.36 0.36 81 1007.2
20260506115231 15 37 1.6 6.4 0.18 0.33 0.30 81 1007.1
20260506114228 15 48 1.6 3.2 0.15 0.28 0.25 81 1006.9
20260506113227 15 48 1.6 3.2 0.15 0.25 0.23 82 1006.9
20260506112228 15 60 1.6 3.2 0.13 0.20 0.18 81 1006.9
20260506111243 15 90 1.6 3.2 0.13 0.18 0.15 80 1007.0
20260506110221 15 90 1.6 3.2 0.10 0.15 0.15 81 1007.0
20260506105219 15 90 1.6 3.2 0.10 0.15 0.13 80 1006.8
20260506104237 15 90 1.6 3.2 0.08 0.13 0.10 79 1006.7
20260506103214 15 90 1.6 3.2 0.05 0.10 0.08 78 1006.7
20260506102213 15 90 1.6 3.2 0.03 0.08 0.05 76 1006.7
20260506101211 15 90 1.6 3.2 0.00 0.05 0.05 76 1006.7
20260506100209 15 90 1.6 3.2 0.00 0.05 0.03 74 1006.7
20260506095207 15 54 1.6 1.6 0.00 0.05 0.03 73 1006.6
20260506094205 15 90 1.6 1.6 0.00 0.05 0.03 73 1006.4
20260506093203 15 90 1.6 1.6 0.00 0.05 0.03 73 1006.4
20260506092201 15 45 1.6 1.6 0.00 0.05 0.03 74 1006.4
20260506091159 15 90 1.6 3.2 0.00 0.05 0.03 74 1006.4
20260506090200 15 90 1.6 3.2 0.00 0.05 0.03 74 1006.4
20260506085155 15 49 1.6 3.2 0.00 0.05 0.03 75 1006.2
20260506084155 15 49 1.6 3.2 0.00 0.05 0.03 75 1006.2
20260506083152 15 90 1.6 1.6 0.00 0.05 0.03 74 1006.2
20260506082149 15 90 1.6 3.2 0.00 0.05 0.03 76 1006.0
20260506081152 14 90 1.6 3.2 0.00 0.05 0.03 77 1006.0
20260506080147 14 30 1.6 1.6 0.00 0.05 0.03 78 1006.1
20260506073139 13 52 1.6 3.2 0.00 0.05 0.03 79 1006.2
20260506072138 13 49 1.6 1.6 0.00 0.08 0.03 80 1006.2
20260506071136 13 45 1.6 3.2 0.00 0.10 0.03 80 1006.2
20260506070133 12 48 1.6 3.2 0.00 0.10 0.03 81 1006.2
20260506062125 12 56 1.6 3.2 0.00 0.10 0.03 82 1006.2
20260506061124 12 90 1.6 3.2 0.00 0.10 0.03 83 1006.2
20260506060122 11 90 1.6 3.2 0.00 0.10 0.03 83 1006.3
20260506051112 11 48 1.6 3.2 0.00 0.10 0.03 84 1006.2
20260506050109 11 45 1.6 3.2 0.00 0.10 0.03 84 1006.2
20260506045106 11 90 1.6 1.6 0.00 0.10 0.03 84 1006.3
20260506044111 11 60 1.6 3.2 0.00 0.10 0.03 84 1006.2
20260506043103 11 90 1.6 3.2 0.00 0.10 0.03 84 1006.3
20260506042102 11 90 1.6 1.6 0.03 0.10 0.03 84 1006.5
20260506041059 11 90 1.6 3.2 0.03 0.10 0.03 84 1006.6
20260506040057 11 90 1.6 3.2 0.03 0.10 0.03 84 1006.6
20260506035055 11 59 1.6 3.2 0.03 0.10 0.03 84 1006.7
20260506034112 11 60 1.6 1.6 0.03 0.10 0.03 84 1006.7
20260506033050 11 90 1.6 1.6 0.03 0.10 0.03 84 1006.9
20260506032054 11 90 1.6 1.6 0.00 0.08 0.00 84 1006.8
20260506031054 11 90 1.6 1.6 0.00 0.08 0.00 84 1006.9
20260506030106 11 90 1.6 3.2 0.00 0.08 0.00 84 1007.0
20260506025044 11 90 1.6 1.6 0.00 0.08 0.00 83 1007.1
20260506024102 11 90 1.6 3.2 0.00 0.08 0.00 83 1007.1
20260506023038 11 90 1.6 1.6 0.00 0.08 0.00 83 1007.1
20260506022058 11 90 1.6 3.2 0.00 0.08 0.00 83 1007.1
20260506021035 11 90 1.6 3.2 0.00 0.08 0.00 83 1007.2
20260506020033 11 90 1.6 3.2 0.00 0.08 0.00 82 1007.2
20260506015054 11 90 1.6 1.6 0.00 0.08 0.00 83 1007.4
20260506014050 11 90 1.6 3.2 0.00 0.08 0.00 83 1007.4
20260506013028 11 90 1.6 3.2 0.00 0.08 0.00 83 1007.5
20260506012026 12 90 1.6 1.6 0.00 0.08 0.00 82 1007.6
20260506011024 12 90 1.6 3.2 0.00 0.08 0.00 83 1007.7
20260506010021 12 90 1.6 3.2 0.00 0.08 0.00 83 1007.8
20260506005020 11 90 1.6 3.2 0.00 0.08 0.00 83 1007.9
20260506004017 11 90 1.6 3.2 0.00 0.08 0.00 83 1007.9
20260506003020 11 90 1.6 3.2 0.00 0.08 0.00 83 1007.9
20260506002014 12 90 1.6 3.2 0.00 0.08 0.00 82 1008.1
20260506001012 12 90 1.6 3.2 0.00 0.08 0.00 82 1008.1
20260506000010 12 90 1.6 3.2 0.00 0.08 0.00 82 1008.2
20260505235027 12 90 1.6 3.2 0.00 0.08 0.00 82 1008.3
20260505234005 12 90 1.6 3.2 0.00 0.08 0.00 82 1008.4
20260505233023 12 90 1.6 3.2 0.00 0.08 0.00 83 1008.5
20260505231500 12 90 1.6 3.2 0.00 0.08 0.00 83 1008.6
20260505230459 12 90 1.6 3.2 0.00 0.08 0.00 83 1008.6
20260505225457 12 59 1.6 3.2 0.00 0.08 0.00 83 1008.6
20260505224514 12 90 1.6 3.2 0.00 0.08 0.00 83 1008.6
20260505223452 11 90 1.6 3.2 0.00 0.08 0.00 83 1008.6
20260505222450 11 90 1.6 3.2 0.00 0.08 0.00 83 1008.5
20260505221448 11 75 1.6 3.2 0.00 0.08 0.00 83 1008.6
20260505220446 11 90 1.6 3.2 0.00 0.08 0.00 83 1008.7
20260505215444 12 90 1.6 3.2 0.00 0.08 0.08 83 1008.7
20260505214442 12 90 1.6 3.2 0.00 0.08 0.08 83 1008.7
20260505213440 12 90 1.6 3.2 0.00 0.08 0.08 82 1008.8
20260505212438 12 90 1.6 3.2 0.00 0.08 0.08 82 1008.8
20260505211436 12 90 1.6 3.2 0.00 0.08 0.08 82 1008.8
20260505210435 12 90 1.6 3.2 0.00 0.08 0.08 82 1008.8
20260505205432 12 90 1.6 3.2 0.00 0.08 0.08 82 1008.8
20260505204451 12 90 1.6 4.8 0.00 0.08 0.08 82 1008.8
20260505203428 12 90 1.6 3.2 0.00 0.08 0.08 82 1009.0
20260505202426 12 90 1.6 3.2 0.00 0.08 0.08 82 1008.8
20260505201424 12 90 1.6 3.2 0.00 0.08 0.08 82 1008.6
20260505200422 13 90 1.6 3.2 0.00 0.08 0.08 82 1008.6
20260505195421 13 90 1.6 6.4 0.00 0.08 0.08 82 1008.5
20260505194418 13 90 1.6 3.2 0.00 0.08 0.08 82 1008.3
20260505193423 13 113 1.6 3.2 0.00 0.08 0.08 82 1008.3
20260505192414 13 109 1.6 3.2 0.00 0.08 0.08 82 1008.2
20260505191412 13 135 1.6 4.8 0.00 0.08 0.08 82 1008.2
20260505190410 14 90 1.6 3.2 0.00 0.08 0.08 81 1008.2
20260505185413 15 90 1.6 3.2 0.00 0.08 0.08 81 1008.1
20260505184427 15 90 1.6 3.2 0.03 0.08 0.08 81 1008.1
20260505183404 15 90 1.6 3.2 0.03 0.08 0.08 80 1008.0
20260505182402 16 90 1.6 3.2 0.03 0.08 0.08 80 1007.8
20260505181401 16 90 1.6 1.6 0.03 0.08 0.08 79 1007.8
20260505180419 16 90 1.6 1.6 0.03 0.08 0.08 79 1008.0
20260505175356 16 90 1.6 1.6 0.00 0.08 0.05 76 1007.7
20260505174353 16 90 1.6 1.6 0.00 0.08 0.05 75 1008.0
20260505173352 16 90 1.6 1.6 0.00 0.08 0.05 74 1007.7
20260505172350 17 90 1.6 1.6 0.00 0.08 0.05 74 1007.3
20260505171409 17 90 1.6 1.6 0.00 0.08 0.05 74 1007.3
20260505170346 17 90 1.6 1.6 0.00 0.10 0.05 74 1007.3
20260505165344 17 45 1.6 1.6 0.00 0.10 0.05 73 1007.3
20260505164342 17 18 1.6 3.2 0.00 0.10 0.05 71 1007.3
20260505163340 17 53 1.6 1.6 0.00 0.10 0.05 71 1007.4
20260505162338 17 53 1.6 1.6 0.00 0.10 0.05 71 1007.4
20260505161337 18 45 1.6 1.6 0.00 0.13 0.05 71 1007.4
20260505160335 18 45 1.6 1.6 0.00 0.15 0.05 71 1007.4
20260505153328 17 315 1.6 4.8 0.00 0.20 0.05 71 1007.5
20260505152349 18 53 1.6 3.2 0.00 0.20 0.05 71 1007.6
20260505151346 18 53 1.6 3.2 0.00 0.23 0.05 71 1007.6
20260505150322 18 38 1.6 4.8 0.00 0.25 0.05 69 1007.4